Location: Владивосток
(43.1151°N, 131.8856°E)
Time: 04:51:09
(UTC+10:00)

CUBEBUG 2 - Pass Details

Date: 11 July 2022
Orbit: 584 x 693 km, 97.7° (Epoch: 07 August)

Event Time Altitude Azimuth Distance (km) Brightness Sun altitude
Rises 04:43:56 0° 5° (N) 2,875 ? -9.4°
Reaches altitude 10° 04:46:10 10° 359° (N) 1,982 ? -9.1°
Maximum altitude 04:50:14 43° 288° (WNW) 889 ? -8.5°
Drops below altitude 10° 04:54:25 10° 217° (SW) 2,030 ? -8.0°
Enters shadow 04:54:33 - 217° (SW) 2,085 ? -7.9°
